Location: Dumpton Point
(51.3500°N, 1.4433°E)
Time: 23:48:11
(UTC+00:00)

A-11 Canister half - Visible Passes

Search period start: 18 April 2021 00:00
Search period end: 28 April 2021 00:00
Orbit: 1515 x 1685 km, 47.2° (Epoch: 18 April)

Date Brightness Start Highest point End Pass type
(mag) Time Alt. Az. Time Alt. Az. Time Alt. Az.
18 Apr 9.0 01:24:02 10° W 01:33:37 66° SSW 01:43:31 10° ESE visible
18 Apr 9.5 03:28:48 10° W 03:37:40 40° SW 03:46:45 10° SSE visible
18 Apr 9.3 20:53:55 10° SSW 21:02:16 38° SE 21:10:53 10° E visible
18 Apr 8.9 22:56:47 10° WSW 23:06:09 65° SSE 23:15:54 10° E visible
19 Apr 8.9 01:01:09 10° W 01:10:42 67° S 01:20:36 10° ESE visible
19 Apr 9.4 03:05:52 10° W 03:14:48 41° SW 03:23:57 10° SSE visible
19 Apr 9.4 20:31:13 10° SSW 20:39:26 36° SE 20:47:54 10° E visible
19 Apr 8.9 22:33:55 10° WSW 22:43:15 64° SSE 22:52:57 10° E visible
20 Apr 8.9 00:38:15 10° W 00:47:47 68° S 00:57:40 10° ESE visible
20 Apr 9.3 02:42:56 10° W 02:51:55 43° SSW 03:01:09 10° SSE visible
20 Apr 9.5 20:08:31 10° SSW 20:16:36 34° SE 20:24:55 10° E visible
20 Apr 8.9 22:11:05 10° WSW 22:20:21 63° SSE 22:30:00 10° E visible
21 Apr 8.9 00:15:21 10° W 00:24:52 69° S 00:34:44 10° ESE visible
21 Apr 9.3 02:20:01 10° W 02:29:03 44° SSW 02:38:20 10° SE visible
21 Apr 9.6 19:45:51 10° SSW 19:53:47 33° SE 20:01:56 10° E visible
21 Apr 8.9 21:48:14 10° WSW 21:57:28 62° SSE 22:07:03 10° E visible
21 Apr 8.9 23:52:28 10° W 00:01:57 69° S 00:11:48 10° ESE visible
22 Apr 9.2 01:57:06 10° W 02:06:11 46° SSW 02:15:31 10° SE visible
22 Apr 10.1 04:03:13 10° W 04:09:17 18° SW 04:15:27 10° SSW visible
22 Apr 9.6 19:23:12 10° SSW 19:30:59 31° SE 19:38:57 10° E visible
22 Apr 9.0 21:25:24 10° WSW 21:34:34 61° SSE 21:44:06 10° E visible
22 Apr 8.9 23:29:35 10° W 23:39:02 70° S 23:48:52 10° ESE visible
23 Apr 9.2 01:34:11 10° W 01:43:18 48° SSW 01:52:42 10° SE visible
23 Apr 10.0 03:40:06 10° W 03:46:29 20° SW 03:52:59 10° S visible
23 Apr 9.0 21:02:34 10° SW 21:11:42 59° SSE 21:21:10 10° E visible
23 Apr 8.9 23:06:41 10° W 23:16:08 70° S 23:25:56 10° ESE visible
24 Apr 9.1 01:11:17 10° W 01:20:25 49° SSW 01:29:51 10° SE visible
24 Apr 10.0 03:17:01 10° W 03:23:40 21° SW 03:30:27 10° S visible
24 Apr 9.0 20:39:45 10° SW 20:48:49 58° SSE 20:58:13 10° E visible
24 Apr 8.9 22:43:49 10° W 22:53:13 70° S 23:03:00 10° ESE visible
25 Apr 9.1 00:48:23 10° W 00:57:33 51° SSW 01:07:00 10° SE visible
25 Apr 9.9 02:53:57 10° W 03:00:51 22° SW 03:07:54 10° S visible
25 Apr 9.1 20:16:56 10° SW 20:25:57 56° SSE 20:35:16 10° E visible
25 Apr 8.9 22:20:56 10° W 22:30:18 70° S 22:40:04 10° E visible
26 Apr 9.1 00:25:29 10° W 00:34:40 52° SSW 00:44:09 10° SE visible
26 Apr 9.8 02:30:55 10° W 02:38:02 24° SW 02:45:19 10° S visible
26 Apr 9.1 19:54:07 10° SW 20:03:05 54° SSE 20:12:20 10° E visible
26 Apr 8.9 21:58:03 10° W 22:07:24 70° S 22:17:07 10° E visible
27 Apr 9.1 00:02:35 10° W 00:11:46 54° SSW 00:21:17 10° SE visible
27 Apr 9.8 02:07:54 10° W 02:15:13 25° SW 02:22:42 10° S visible
27 Apr 9.2 19:31:19 10° SW 19:40:13 53° SSE 19:49:23 10° E visible
27 Apr 8.9 21:35:10 10° W 21:44:30 70° S 21:54:11 10° E visible
27 Apr 9.0 23:39:42 10° W 23:48:53 55° SSW 23:54:19 28° SE visible
